Miscellaneous Local Product
Issued by NWS North Platte, NE

Home | Current Version | Previous Version | Graphics & Text | Print | Product List | Glossary On
Versions: 1 2 3 4 5 6 7 8 9 10 11 12 13 14 15 16 17 18 19 20 21 22 23 24 25 26 27 28 29 30 31 32 33 34 35 36 37 38 39 40 41 42 43 44 45 46 47 48 49 50
000
AXUS43 KLBF 231810
MISLBF


WESTERN AND NORTH CENTRAL NEBRASKA HOURLY WEATHER ROUNDUP
NATIONAL WEATHER SERVICE NORTH PLATTE NE
100 PM CDT FRI JUN 23 2017

NOTE: "FAIR" INDICATES FEW OR NO CLOUDS BELOW 12,000 FEET WITH NO
SIGNIFICANT WEATHER AND/OR OBSTRUCTIONS TO VISIBILITY.

NOTE: STATIONS NOT REPORTING VARIABLES SUCH AS SKY/WEATHER OR
PRESSURE ARE PROVIDED BY RAWS AND APRS NETWORKS AND ARE NOT UNDER
NATIONAL WEATHER SERVICE QUALITY CONTROL.

...OBSERVATIONS IN AND NEAR THE EASTERN PANHANDLE OF NEBRASKA...

CITY           SKY/WX    TMP DP  RH WIND       PRES   REMARKS
PINE RIDGE     MOSUNNY   67  42  40 NW8       30.19F
GORDON         FAIR      62  42  47 N15G21    30.18F
CHADRON        SUNNY     67  34  29 NW17G25   30.19F
ALLIANCE       SUNNY     66  35  31 NW23G30   30.19F
SIDNEY         CLOUDY    59  40  49 NW14      30.25F
CRESCENT LAKE    N/A     66  34  30 NW15G25     N/A
$$

...OBSERVATIONS IN NORTHERN NEBRASKA AND FAR SOUTHERN SOUTH DAKOTA...

CITY           SKY/WX    TMP DP  RH WIND       PRES   REMARKS
VALENTINE      PTSUNNY   67  38  34 N22G29    30.14S
THEDFORD       MOSUNNY   68  43  39 N16G29    30.15F
AINSWORTH      CLOUDY    64  45  49 N23G30    30.14S
O`NEILL        CLOUDY    67  49  51 NW21G31   30.10R
ORD            SUNNY     71  44  37 NW22G33   30.08F
BROKEN BOW     SUNNY     72  46  39 NW18G26   30.12S
VALENTINE NWR    N/A     64  45  50 NW15G28     N/A
HALSEY           N/A     68  41  37 NW13G23     N/A
BUTTE            N/A     62  48  60 NW22G31     N/A
CHAMBERS         N/A     70  46  42 E7          N/A
EWING            N/A     68  53  58 NW12G22     N/A
$$

...OBSERVATIONS IN SOUTHWEST NEBRASKA AND FAR NORTHEAST COLORADO...

CITY           SKY/WX    TMP DP  RH WIND       PRES   REMARKS
WRAY           CLOUDY    70  43  37 N9G17     30.23F
IMPERIAL       CLOUDY    69  40  34 N14       30.20S
OGALLALA       CLOUDY    69  35  28 NW9G18    30.18F
NORTH PLATTE   SUNNY     74  41  30 N14G20    30.15S
MCCOOK         PTSUNNY   75  45  34 N14       30.14F
LEXINGTON      PTSUNNY   73  46  38 N16       30.12F
STAPLETON        N/A     68  46  45 N3          N/A
GOTHENBURG       N/A     68  41  36 N13         N/A
CALLAWAY         N/A     69  47  46 N20         N/A
$$

...OBSERVATIONS IN CENTRAL LINCOLN COUNTY AREA...

CITY           SKY/WX    TMP DP  RH WIND       PRES   REMARKS
N.P. AIRPORT   SUNNY     74  41  30 N14G20    30.15S
N.P. DOWNTOWN    N/A     71  43  37 NW8G20      N/A
N.P. SOUTHEAST   N/A     70  43  37 N8G16       N/A
N.P. HILLCREST   N/A     69  42  38 NW13G24     N/A
$$

...SOME OBSERVATIONS FROM AROUND THE REGION...

CITY           SKY/WX    TMP DP  RH WIND       PRES   REMARKS
DENVER         CLOUDY    53  42  66 E12       30.30F
LIMON          CLOUDY    57  43  59 MISG      30.30F
ASPEN          SUNNY     76  33  21 N8G16     30.25F
LARAMIE        SUNNY     62  36  37 N9        30.28F
CASPER         MOSUNNY   64  31  28 NE13G18   30.28F
CHEYENNE       MOSUNNY   58  38  47 S8        30.28F
SCOTTSBLUFF    SUNNY     69  34  27 N14G23    30.21F
GRAND ISLAND   SUNNY     70  48  45 NW17G24   30.10S
OMAHA          CLOUDY    71  53  52 W13       30.01F
SIOUX FALLS    CLOUDY    63  53  70 NW16G22   29.99F
PIERRE         SUNNY     65  38  36 NW26G36   30.09S
RAPID CITY     SUNNY     65  35  33 N23G32    30.18F
BISMARCK       MOSUNNY   62  36  37 NW22G31   30.07S
KANSAS CITY    CLOUDY    80  58  46 N16G24    29.93R
HILL CITY      PTSUNNY   73  46  38 N15G23    30.15R
WICHITA        MOSUNNY   84  49  29 NE26G37   29.94F
DODGE CITY     MOSUNNY   71  51  49 NE23G31   30.13R
OKLAHOMA CITY  MOSUNNY   88  67  49 N17       29.89R HX  91
DALLAS         MOSUNNY   93  76  57 SE7       29.80R HX 105
AMARILLO       PTSUNNY   75  61  61 N28G36    30.09R
$$




USA.gov is the U.S. government's official web portal to all federal, state and local government web resources and services.